DW2267 Ponte Vedra FL US current weather conditions

sailwx.info

Wind from 244

Air temperature 16.7° C
Dewpoint 10.3° C

Last reported at 2020-Jan-27 23:09 UTC.
Time now 2020-Jan-28 23:31 UTC

Location: N 30°05' W 081°25'.
View on Google Maps.

See reports from other nearby stations

  
Tides and Currents Weather Stations Pressure Air Temp Water Temp Dewpoint Dewpoint Depression Visibility Wind Speed Wind Dir Waves Ship Positions
date/time (UTC)wind fromknots sea level pressurealtimeterstation pressurevisibilityair tempwater tempwave heightnotes
2020-Jan-27 23:09 244 16.7
2020-Jan-27 22:59 244 16.7
2020-Jan-27 22:49 244 17.2
2020-Jan-27 22:39 244 17.2
2020-Jan-27 22:29 244 17.2
2020-Jan-27 22:19 244 17.2
2020-Jan-27 22:09 244 17.2
2020-Jan-27 21:59 239 0 gusting 1 17.8
2020-Jan-27 21:49 239 17.8
2020-Jan-27 21:39 240 0 gusting 1 17.8
2020-Jan-27 21:29 240 17.8
2020-Jan-27 21:19 204 1 gusting 2 17.8
2020-Jan-27 21:09 254 0 gusting 2 17.8
2020-Jan-27 20:59 248 17.8
2020-Jan-27 20:49 217 0 gusting 1 17.8
2020-Jan-27 20:39 226 0 gusting 3 17.8
2020-Jan-27 20:29 216 1 gusting 3 17.8
2020-Jan-27 20:19 271 17.8
2020-Jan-27 20:09 280 0 gusting 2 18.3
2020-Jan-27 19:59 261 0 gusting 5 17.8
2020-Jan-27 19:49 217 0 gusting 3 17.8
2020-Jan-27 19:39 217 0 gusting 7 17.8
2020-Jan-27 19:29 285 3 gusting 6 17.8
2020-Jan-27 19:19 223 17.8
2020-Jan-27 19:09 194 0 gusting 3 17.8
2020-Jan-27 18:59 136 17.8
2020-Jan-27 18:49 138 17.8
2020-Jan-27 18:39 076 1 gusting 2 17.2
2020-Jan-27 18:29 032 17.8
2020-Jan-27 18:19 138 0 gusting 2 17.8
2020-Jan-27 18:09 103 0 gusting 3 17.2
2020-Jan-27 17:59 117 16.7
2020-Jan-27 17:49 171 16.7
2020-Jan-27 17:39 133 1 gusting 2 16.7
2020-Jan-27 17:29 197 0 gusting 4 17.2
2020-Jan-27 17:19 192 0 gusting 4 17.2
2020-Jan-27 17:09 188 16.7
2020-Jan-27 16:59 159 16.7
2020-Jan-27 16:49 080 1 gusting 3 16.7
2020-Jan-27 16:39 184 0 gusting 2 16.7
2020-Jan-27 16:29 192 1 gusting 3 16.7
2020-Jan-27 16:19 032 16.1
2020-Jan-27 16:09 024 3 gusting 3 16.7
2020-Jan-27 15:59 129 16.7
2020-Jan-27 15:49 129 16.7
2020-Jan-27 15:39 360 16.1
2020-Jan-27 15:29 013 16.1
2020-Jan-27 15:19 050 15.6
2020-Jan-27 15:09 054 15.0
2020-Jan-27 14:59 042 2 gusting 4 14.4
2020-Jan-27 14:49 020 13.3
2020-Jan-27 14:39 005 1 gusting 3 13.3
2020-Jan-27 14:29 040 12.8
2020-Jan-27 14:19 292 12.2
2020-Jan-27 14:09 289 12.2
2020-Jan-27 13:59 289 11.7
2020-Jan-27 13:49 289 11.7
2020-Jan-27 13:39 289 11.7
2020-Jan-27 13:29 289 11.7
2020-Jan-27 13:19 289 11.1
2020-Jan-27 13:09 061 11.1
2020-Jan-27 12:59 061 11.1
2020-Jan-27 12:49 061 11.1
2020-Jan-27 12:39 061 11.1
2020-Jan-27 12:29 061 11.1
2020-Jan-27 12:19 061 11.1
2020-Jan-27 12:09 061 11.1
2020-Jan-27 11:59 061 11.1
2020-Jan-27 11:49 061 11.1
2020-Jan-27 11:39 061 11.1
2020-Jan-27 11:29 061 11.1
2020-Jan-27 11:19 061 11.7
2020-Jan-27 11:09 061 11.7
2020-Jan-27 10:59 061 11.7
2020-Jan-27 10:49 061 11.7
2020-Jan-27 10:39 061 11.7
2020-Jan-27 10:29 061 11.7
2020-Jan-27 10:19 061 11.7
2020-Jan-27 10:09 061 11.7
2020-Jan-27 09:59 061 11.7
2020-Jan-27 09:49 061 11.7
2020-Jan-27 09:39 061 11.7
2020-Jan-27 09:29 061 11.7
2020-Jan-27 09:19 061 11.7
2020-Jan-27 09:09 061 11.7
2020-Jan-27 08:59 061 11.7
2020-Jan-27 08:49 061 11.7
2020-Jan-27 08:39 061 11.7
2020-Jan-27 08:29 061 11.7
2020-Jan-27 08:19 061 12.2
2020-Jan-27 08:09 061 12.2
2020-Jan-27 07:59 061 12.2
2020-Jan-27 07:49 061 12.2
2020-Jan-27 07:39 061 12.2
2020-Jan-27 07:29 061 12.2
2020-Jan-27 07:19 078 12.2
2020-Jan-27 07:09 069 12.2
2020-Jan-27 06:59 069 12.2
2020-Jan-27 06:49 069 12.2
2020-Jan-27 06:39 069 12.2
2020-Jan-27 06:29 069 12.2
2020-Jan-27 06:19 069 12.2
2020-Jan-27 06:09 069 12.2
2020-Jan-27 05:59 069 12.2
2020-Jan-27 05:49 069 12.2
2020-Jan-27 05:39 069 0 gusting 0 12.2
2020-Jan-27 05:29 069 12.2
2020-Jan-27 05:19 070 12.2
2020-Jan-27 05:09 069 12.2
2020-Jan-27 04:59 069 12.2
2020-Jan-27 04:49 070 12.2
2020-Jan-27 04:39 069 12.2
2020-Jan-27 04:29 070 12.2
2020-Jan-27 04:19 069 12.2
2020-Jan-27 04:09 069 12.2
2020-Jan-27 03:59 070 12.2
2020-Jan-27 03:49 069 12.2
2020-Jan-27 03:39 069 12.2
2020-Jan-27 03:29 069 12.2
2020-Jan-27 03:19 069 12.2
2020-Jan-27 03:09 069 12.2
2020-Jan-27 02:59 069 12.2
2020-Jan-27 02:49 069 12.8
2020-Jan-27 02:39 069 12.8
2020-Jan-27 02:29 069 12.8
2020-Jan-27 02:19 069 12.8
2020-Jan-27 02:09 069 12.8
2020-Jan-27 01:59 069 12.8
2020-Jan-27 01:49 069 13.3
2020-Jan-27 01:39 069 13.3
2020-Jan-27 01:29 069 13.3
2020-Jan-27 01:19 069 13.3
2020-Jan-27 01:09 069 13.3
2020-Jan-27 00:59 069 13.3
2020-Jan-27 00:49 069 13.3
2020-Jan-27 00:39 069 13.3
2020-Jan-27 00:29 069 13.3
2020-Jan-27 00:19 070 13.9
2020-Jan-27 00:09 070 13.9
2020-Jan-26 23:59 069 13.9
2020-Jan-26 23:49 069 13.9
2020-Jan-26 23:39 069 13.9
2020-Jan-26 23:29 069 14.4
2020-Jan-26 23:19 069 14.4
2020-Jan-26 23:09 069 15.0